Погода в Мариинске

Погода в Мариинске : погода сейчас, прогноз погоды и архив. Всё, что Вы хотите узнать о погоде в Мариинске!

Хотите узнать прогноз погоды в Мариинске? Тогда Вам сюда: Погода в Мариинске

Поиск расширенной информации на нашем сайте:

Другие новости

Новости СМИ2

Главная страница сайта

Новости сайта

03.07.2017

Напоминаем, что на нашем специализированном сайте Метеоцентр.Азия вы можете получить высокодетализированные автоматические прогнозы погоды по пунктам России, СНГ и мира в авиационном формате (включающие направление и скорость ветра, видимость, явления погоды, количество и форму облачности, нижнюю и верхнюю границу облачности).


Погода в Мариинске - сегодня

Время (UTC), дата Ветер
(°,м/с) 
Видим.   Явления Облачность Т
(°С)
Тd
(°С)
f(%) Тe
(°С)
Pmin
(гПа)
dP
(гПа)
Po
(мм)
O2
(г/м3)
Тmin Tmax R s Состояние
почвы
00 16.04.18 210 (ЮЗ) 20000 м    10/6 600 м кучево-дожд., средняя 
[Cb calv|Ac As]
+3.4 -6.2 49 +1  1006.5  -0.7  742  296  +3.2         
03 16.04.18 220 (ЮЗ) 6{11}  20000 м    10/8 600 м кучево-дожд., верхняя 
[Cb calv|Ci sp]
+4.9 -3.7 54 +2  1005.8  -0.6  741  294           
12 16.04.18 230 (ЮЗ) 3{10}  20000 м  {ливн. осадки}  10/4 1000 м кучево-дожд., средняя, верхняя 
[Cb calv|Ac trans|Ci sp]
+9.4 -4.2 38 +9  1001.3  -1.5  738  288    +10.1  0.3     
15 16.04.18 200 (Ю) 20000 м    10/6 600 м кучево-дожд., верхняя 
[Cb calv|Ci sp]
+7.7 -6.6 36 +6  1000.8  -0.5  738  290           
00 17.04.18 250 (З) 6{16}  20000 м  {ливн. осадки}  10/8 600 м кучево-дожд., верхняя 
[Cb calv|Ci sp]
+1.8 -2.5 73 -1  1003.4  2.1  739  296  +1.7    0.0     
12 17.04.18 290 (З) 5{14}  20000 м  в посл. час ливневой снег  8/4 600 м кучево-дожд., верхняя 
[Cb calv|Ci sp]
-0.8 -4 79 -4  1011  2.4  745  301    +3.3  0.8     
18 17.04.18 270 (З) 20000 м  {ливн. осадки}  ясно 
-3 -7.5 71 -7  1014.9  1.8  747  305           
21 17.04.18 300 (СЗ) 10 км  слаб. ливневой снег  6/6 600 м кучево-дожд. 
[Cb calv]
-3.5 -7.6 73 -6  1016.5  1.5  749  306           
00 18.04.18 310 (СЗ) 20000 м  в посл. час ливневой снег  9/9 600 м кучево-дожд. 
[Cb calv]
-5.5 -7.1 88 -5  1018.5  1.9  750  309  -5.7    0.8  равномерный
сухой снег
100% 
03 18.04.18 260 (З) 20000 м  в посл. час ливневой снег  10/5 600 м кучево-дожд., верхняя 
[Cb calv|Ci sp]
-4.5 -11.6 58 -7  1021.1  2.5  752  309           
06 18.04.18 300 (СЗ) 20000 м  {ливн. осадки}  8/8 600 м кучево-дожд. 
[Cb calv]
-2 -10.7 51 -5  1021.4  0.5  752  306           
09 18.04.18 290 (З) 20000 м    10/8 600 м кучево-дожд., верхняя 
[Cb calv|Ci sp]
-1.5 -11 48 -2  1021.6  0.3  752  306           
12 18.04.18 330 (СЗ) 20000 м    8/8 600 м кучево-дожд. 
[Cb calv]
-1.2 -10.4 50 -4  1021.2  -0.4  752  305    -0.4  0.0     
15 18.04.18 тихо ()   20000 м    3/3 600 м кучево-дожд., средняя 
[Cb calv|Ac trans]
-4.9 -8.3 77 -5  1022.4  0.9  753  310           
18 18.04.18 200 (Ю) 20000 м    8/3 600 м кучево-дожд., верхняя 
[Cb calv|Ci sp]
-3.5 -8.3 69 -3  1022.6  0.3  753  308           
21 18.04.18 210 (ЮЗ) 20000 м    10/5 600 м кучево-дожд., верхняя 
[Cb calv|Ci sp]
-3.4 -8.8 66 -3  1022.1  -0.4  753  308           
00 19.04.18 тихо ()   20000 м    8/3 600 м кучево-дожд., верхняя 
[Cb calv|Ci fib]
-3.6 -7.9 72 -4  1022.4  0.2  753  308  -5.3      мокрый или
старый снег
10-40% 
03 19.04.18 250 (З) 20000 м    8/4 600 м кучево-дожд., верхняя 
[Cb calv|Ci fib]
-0.1 -12.6 38 -3  1022.1  753  305           
06 19.04.18 240 (ЮЗ) 20000 м    9/6 600 м кучево-дожд., верхняя 
[Cb calv|Ci sp]
+2.6 -12.8 31 +1  1020.7  -1.2  752  301           
09 19.04.18 260 (З) 20000 м    5/5 600 м кучево-дожд. 
[Cb calv]
+4.6 -13.7 25 +4  1018.8  -1.8  751  299           
12 19.04.18 250 (З) 20000 м    3/3 600 м кучево-дожд. 
[Cb calv]
+4.6 -14.4 24 +5  1018.1  -0.7  750  298    +5.4       
15 19.04.18 130 (ЮВ) 20000 м    3/3 1000 м 
[Sc]
-0.1 -11.7 41 +1  1018.4  750  303           
18 19.04.18 тихо ()   20000 м    ясно 
-4.4 -8.4 74 -4  1018.6  750  308           
21 19.04.18 тихо ()   20000 м    ясно 
-4.4 -9.6 67 -4  1018.7  0.1  750  308           
00 20.04.18 120 (ЮВ) 20000 м    8/5 600 м кучево-дожд., верхняя 
[Cb calv|Ci sp]
-3.1 -9.3 62 -3  1019.8  1.1  751  307  -5.1         
Время (UTC), дата Ветер
(°,м/с) 
Видим.   Явления Облачность Т
(°С)
Тd
(°С)
f(%) Тe
(°С)
Pmin
(гПа)
dP
(гПа)
Po
(мм)
O2
(г/м3)
Тmin Tmax R s Состояние
почвы

Для получения пояснительной информации подведите курсор к названию столбца.

ПОГОДА в Мариинске - архив

Всё, что Вы хотите узнать о погоде в Мариинске - удобно и подробно!

Выберите нужную дату (начиная с 1 января 2015* года) и нажмите кнопку "Найти".
Будут отображены архивные сводки погоды по пункту Мариинск, начиная с указанной даты.


Отображать данные в формате CSV (для использования в таблицах Excel)


Внимание! Наш архив погоды предназначен исключительно для личного некоммерческого использования в познавательных целях. Если Вам необходимы официальные справки о состоянии погоды (для производственных, юридических, коммерческих и т.п. целей), обращайтесь в органы Росгидромета.

*Примечание: данная дата относится к архиву по метеостанциям СССР (Россия, СНГ, Балтия).
Архив по метеостанциям Зарубежной Европы и Азии (кроме Китая) хранится 10 дней, по другим регионам земного шара (Китай, Африка, Америка, Австралия, Океания) - 1 день.

Мариинск - район местоположения метеостанции


Название, широта, долгота, высота метеостанции:
Мариинск 56.2°ш. 87.8°д. 140 м над ур. моря [Российская Федерация]

Дополнительная информация

В oтличие oт бoльшинства пoгoдных сайтoв мы публикуем пoдрoбную метеoинфoрмацию в детальнoм прoфессиoнальнoм фoрмате.

Характеристики температуры и влажнoсти вoздуха измеряются на высoте 2 м в тени вдали oт зданий и деревьев.
Скoрoсть ветра измеряется на высoте 10 м (на урoвне рoста челoвека скoрoсть ветра ниже в 1.5-2 раза). Если метеoстанция нахoдится в гoрoде или в лесу, тo скoрoсть ветра занижена на 2-4 м/с пo сравнению с oткрытым местoм. Скoрoсть ветра над акватoриями крупных рек и oзёр, а также на вершинах хoлмoв на 2-5 м/с выше, чем в oбычных услoвиях.
Атмoсфернoе давление в разных тoчках местнoсти мoжет значительнo oтличаться oт давления на метеoстанции, в зависимoсти oт услoвий рельефа (при пoдъёме на 10 м давление пoнижается примернo на 1 мм рт.ст.).